Location: Peterborough
(44.3091°N, 78.3197°W)
Time: 03:32:43
(UTC-04:00)

S-56A Canister/Altair - Pass Details

Date: 27 March 2023
Orbit: 639 x 2492 km, 38.9° (Epoch: 08 June)

Event Time Altitude Azimuth Distance (km) Brightness Sun altitude
Rises 22:51:17 0° 272° (W) 5,462 12.5 -32.5°
Reaches altitude 10° 22:54:34 10° 270° (W) 4,651 12.0 -32.9°
Maximum altitude 23:08:07 67° 192° (SSW) 2,619 9.8 -34.6°
Enters shadow 23:10:49 59° 150° (SSE) 2,761 9.8 -34.9°
Drops below altitude 10° 23:22:50 10° 115° (ESE) 5,007 - -36.2°
Sets 23:26:31 0° 113° (ESE) 5,888 - -36.6°
